User: anonymous   Login
Location: Unspecified
(0.0000°N, 0.0000°E)
Time: 11:03:34
(UTC+00:00)
Language:

LilacSat-2 - Orbit

View from above orbital plane
View from above orbital plane
View from above satellite
View from above satellite

Ground track
Ground track

The orbit data is extracted from the following two-line orbital elements,

1 40908U 15049K   19349.04825685  .00000418  00000-0  26652-4 0  9992
2 40908  97.4841 346.5167 0014714 307.3215 125.0870 15.13914325233944
Epoch (UTC): 15 December 2019 01:09:29
Eccentricity: 0.0014714
inclination: 97.4841°
perigee height: 514 km
apogee height: 534 km
right ascension of ascending node: 346.5167°
argument of perigee: 307.3215°
revolutions per day: 15.13914325
mean anomaly at epoch: 125.0870°
orbit number at epoch: 23394

The dashed part of the orbit path shows where the satellite is in the earth's shadow,  

DLR